EUTELSAT 7 WEST A

Last updated on Sun Jun 21 2026 00:03:05 GMT+0000 (Coordinated Universal Time)

1 37816U 11051A 26171.39051046 -.00000065 00000+0 00000+0 0 9998 2 37816 0.0679 22.5916 0004255 76.3569 302.9137 1.00271971 53906
UTC large
Height (km)
Speed (km/s)
/
Latitude / Longitude
Inclination (degrees)
Orbital Period (minutes)
Azimuth
Elevation
Range (km)
Doppler Factor

Next 0 passes for location: London (51.5072 / 0.1276)

No passes found over London.
EUTELSAT 7 WEST A